Location: Kerentrech
(47.7567°N, 3.3595°W)
Time: 17:23:52
(UTC+00:00)

MOS 1-B - Pass Details

Date: 17 February 2020
Orbit: 906 x 913 km, 99.4° (Epoch: 27 March)

Event Time Altitude Azimuth Distance (km) Brightness Sun altitude
Rises 06:00:17 0° 13° (NNE) 3,557 7.6 -13.5°
Reaches altitude 10° 06:02:43 10° 12° (NNE) 2,612 6.9 -13.1°
Maximum altitude 06:08:31 73° 289° (WNW) 957 4.3 -12.1°
Drops below altitude 10° 06:14:17 10° 206° (SSW) 2,596 6.5 -11.2°
Sets 06:16:42 0° 205° (SSW) 3,534 7.2 -10.8°
